Das Wetter in  D-61279 Heinzenberg / Taunus





Wetter Minimum- & Maximum-Werte im März 2014

Standort: Heinzenberg / Taunus - Höhe 297 m         8° 24' 1" Ost 50° 21' 51" Nord
(   3-stündige Aktualisierung    letzte Aktualisierung um 20:46 am 31.03.2014  )


Messgrösse

Minimum

Maximum

Durchschnitt

Temperatur West /
Luftfeuchte West
Anklicken für Monats-Diagramm

-3,1 °C

06:36
26.03.2014

30 %

15:38
13.03.2014

21,6 °C

16:14
30.03.2014

89 %

09:41
01.03.2014

Temp

7,2 °C

Feuchte

69 %

Temperatur Ost /
Luftfeuchte Ost
Anklicken für Monats-Diagramm

-3,0 °C

06:01
26.03.2014

--

--
--

22,6 °C

13:44
09.03.2014

--

--
--

7,4 °C

--

Luftdruck Anklicken für Monats-Diagramm

991,8 hPa

08:53
03.03.2014

1034,8 hPa

07:33
08.03.2014

1017,6 hPa

Taupunkt

-5,5 °C

06:19
25.03.2014

8,3 °C

12:14
30.03.2014

1,4 °C

Windchill
( gefühlte Temperatur )

-9,5 °C

03:03
03.03.2014

21,6 °C

16:14
30.03.2014

5,2 °C

Windgeschwindigkeit /
Windrichtung
Anklicken für Monats-Diagramm

---

69,4 km/h / W-SW

13:56
21.03.2014

7,8 km/h
SO

Helligkeit /
Sonnenschein
Anklicken für Monats-Diagramm
Anklicken für Monats-Diagramm

Sonnenschein:

160:53 Stunden

Max: 10:00 Std am
13.03.2014

76,7 klux

12:14
24.03.2014

24,2 klux

Solarstrahlung Anklicken für Monats-Diagramm

---

525 W/m²

12:14
24.03.2014

180 W/m²

Regenmenge
    März 2014
Anklicken für Monats-Diagramm

Insgesamt 10,0 l/m²

in 13:51 Stunden
an 10 Tagen

3,8 l/m²

01:14
19.03.2014

Gesamtmenge

10,0 l/m²

Regen-Tage
    März 2014
Anklicken für Monats-Diagramm

>   0 mm/Tag

>   2 mm/Tag

>   5 mm/Tag

> 10 mm/Tag

> 20 mm/Tag

10 Tage     
3 Tage     
0 Tage     
0 Tage     
0 Tage     

Eisige Tage März 2014 / 2013

Tmin ≤ -10°C     

0 Tage

/

  1 Tag

Eistage März 2014 / 2013

Tmax <     0°C     

0 Tage

/

2 Tage

Frosttage März 2014 / 2013

Tmin ≤     0°C     

15 Tage

/

27 Tage

Kalte Tage März 2014 / 2013

Tmax <   10°C     

5 Tage

/

25 Tage

Warme Tage März 2014 / 2013

Tmax ≥   20°C     

5 Tage

/

0 Tage

Sommertage März 2014 / 2013

Tmax ≥   25°C     

0 Tage

/

0 Tage

Heisse Tage März 2014 / 2013

Tmax ≥   30°C     

0 Tage

/

0 Tage


Monatsdiagramm März 2014

Die Kurven zeigen den Durchschnittswert des jeweiligen Tages an


Wetter-Monatsübersicht März 2014
Datum
  Temperatur
   Luftdruck
   Wind
  Regen
   Luftfeuchte
   Helligkeit

Sonnen-
schein

Ø
Temp.

Min.
Temp.

Max.
Temp.

Ø
Luftdruck

Min.
Luftdruck

Max.
Luftdruck

Ø-Geschw.
Haupt-Richtg.

Max.
Wind

Menge /
Dauer

Ø
Feuchte

Min.
Feuchte

Max.
Feuchte

Ø
Helligkeit

Max.
Helligkeit

1.
März
4,5 °C0,3 °C
07:26
7,0 °C
12:56
1002,5 hPa1001,7 hPa
14:21
1003,6 hPa
07:26
2,8 km/h
W-SW
15,9 km/h
01:26  
0,2 l/m²
30 Minuten
78 %69 %
15:36
89 %
09:41
10,0 klux27,8 klux
10:26
--- 
2.
März
2,7 °C-1,2 °C
07:32
7,9 °C
17:02
1004,1 hPa998,5 hPa
23:58
1006,8 hPa
08:27
3,8 km/h
O-SO
20,6 km/h
18:02  
---
79 %67 %
16:02
89 %
10:07
15,3 klux51,7 klux
12:07
1:30 Std 
3.
März
3,5 °C-0,9 °C
02:23
8,0 °C
15:08
994,7 hPa991,8 hPa
08:53
998,5 hPa
00:53
10,8 km/h
W-SW
30,4 km/h
12:13  
---
79 %72 %
15:13
86 %
02:58
12,8 klux51,3 klux
14:58
15 Min 
4.
März
3,4 °C-2,7 °C
07:24
11,9 °C
16:44
1003,8 hPa998,5 hPa
00:04
1010,8 hPa
23:55
3,8 km/h
W-NW
16,1 km/h
14:34  
---
73 %48 %
16:04
88 %
08:59
29,9 klux53,6 klux
13:24
9:15 Std 
5.
März
3,9 °C-0,2 °C
01:40
10,3 °C
14:35
1019,0 hPa1010,8 hPa
00:00
1027,5 hPa
23:56
4,8 km/h
NW
21,4 km/h
13:55  
---
5 Minuten
75 %60 %
14:40
85 %
08:15
18,9 klux63,9 klux
11:20
2:30 Std 
6.
März
3,0 °C-2,6 °C
07:01
12,3 °C
16:26
1029,9 hPa1027,5 hPa
00:01
1032,4 hPa
10:56
3,2 km/h
SO
20,1 km/h
13:26  
---
75 %51 %
16:21
89 %
11:06
26,1 klux55,6 klux
13:11
6:26 Std 
7.
März
4,7 °C-2,6 °C
06:07
14,2 °C
15:12
1027,7 hPa1024,6 hPa
15:12
1030,2 hPa
23:58
3,9 km/h
SO
24,1 km/h
14:03  
---
71 %49 %
15:42
86 %
09:17
28,5 klux54,5 klux
13:12
7:00 Std 
8.
März
6,6 °C-0,6 °C
07:03
15,8 °C
16:48
1032,2 hPa1030,2 hPa
00:03
1034,8 hPa
07:33
6,2 km/h
SO
24,2 km/h
15:43  
---
69 %48 %
16:23
86 %
08:58
30,4 klux54,9 klux
12:13
8:35 Std 
9.
März
8,7 °C0,1 °C
07:14
20,0 °C
16:44
1030,8 hPa1028,1 hPa
16:44
1033,5 hPa
08:49
4,2 km/h
SO
21,5 km/h
14:49  
---
60 %31 %
16:14
82 %
08:24
32,9 klux56,2 klux
13:09
9:55 Std 
10.
März
7,7 °C-0,3 °C
06:05
18,2 °C
16:20
1026,0 hPa1023,1 hPa
16:20
1029,3 hPa
02:05
2,9 km/h
SO
13,1 km/h
14:50  
---
62 %37 %
16:25
79 %
07:20
31,6 klux56,4 klux
12:50
9:55 Std 
11.
März
8,8 °C0,3 °C
06:46
18,4 °C
16:16
1029,1 hPa1025,9 hPa
00:01
1032,8 hPa
23:57
5,5 km/h
NO
22,3 km/h
16:41  
---
58 %35 %
16:16
78 %
07:01
31,7 klux56,2 klux
12:41
9:25 Std 
12.
März
8,2 °C-0,2 °C
07:22
17,7 °C
16:22
1032,0 hPa1029,4 hPa
16:22
1034,8 hPa
07:22
3,8 km/h
SO
21,6 km/h
13:07  
---
62 %35 %
13:07
82 %
08:32
30,9 klux55,9 klux
12:47
9:10 Std 
13.
März
8,3 °C-0,8 °C
07:08
19,8 °C
16:18
1028,8 hPa1025,0 hPa
16:53
1031,7 hPa
08:13
4,0 km/h
SO
15,1 km/h
12:43  
---
60 %30 %
15:38
82 %
08:38
32,5 klux57,0 klux
12:53
10:00 Std 
14.
März
8,4 °C-0,4 °C
07:34
18,0 °C
16:19
1025,7 hPa1021,1 hPa
23:50
1029,6 hPa
07:34
5,0 km/h
SO
19,1 km/h
15:44  
---
60 %37 %
16:19
80 %
08:39
31,9 klux56,3 klux
12:54
9:50 Std 
15.
März
7,8 °C5,9 °C
11:20
9,0 °C
00:00
1020,2 hPa1018,1 hPa
05:15
1021,5 hPa
11:25
19,8 km/h
W-NW
38,4 km/h
14:00  
1,2 l/m²
2:10 Stunden
73 %62 %
00:00
87 %
10:35
10,0 klux60,2 klux
11:55
40 Min 
16.
März
9,5 °C6,8 °C
00:06
12,8 °C
15:21
1019,1 hPa1017,6 hPa
15:21
1021,2 hPa
23:47
20,8 km/h
W
35,3 km/h
04:46  
---
78 %68 %
18:56
87 %
06:01
8,2 klux64,3 klux
13:31
5 Min 
17.
März
8,9 °C5,3 °C
04:07
11,3 °C
15:57
1020,5 hPa1019,8 hPa
15:57
1021,4 hPa
02:07
10,9 km/h
W-SW
31,2 km/h
12:07  
---
75 %67 %
16:47
84 %
05:07
8,0 klux32,1 klux
13:57
--- 
18.
März
8,8 °C6,8 °C
07:23
11,1 °C
11:08
1016,3 hPa1012,8 hPa
17:53
1020,3 hPa
01:43
11,7 km/h
W
35,9 km/h
23:44  
---
15 Minuten
75 %69 %
22:08
81 %
06:23
12,9 klux38,0 klux
15:08
5 Min 
19.
März
10,1 °C7,0 °C
01:29
15,0 °C
15:14
1022,1 hPa1016,0 hPa
00:04
1024,3 hPa
10:19
21,6 km/h
W
40,8 km/h
03:39  
3,8 l/m²
3:40 Stunden
74 %57 %
15:19
88 %
05:49
20,3 klux70,6 klux
13:59
2:20 Std 
20.
März
12,7 °C2,4 °C
07:35
20,6 °C
16:20
1017,7 hPa1010,0 hPa
23:51
1024,5 hPa
02:25
10,0 km/h
W-SW
34,6 km/h
15:25  
---
57 %34 %
16:20
85 %
08:30
34,9 klux63,5 klux
14:25
9:45 Std 
21.
März
12,8 °C7,2 °C
23:37
16,5 °C
13:01
1009,8 hPa1007,8 hPa
13:01
1012,0 hPa
22:27
26,1 km/h
W-SW
69,4 km/h
13:56  
---
50 Minuten
60 %46 %
12:26
78 %
23:42
17,2 klux51,6 klux
11:31
1:00 Std 
22.
März
7,6 °C3,5 °C
23:58
10,8 °C
16:02
1005,6 hPa1002,3 hPa
16:02
1010,0 hPa
00:27
13,3 km/h
W-SW
51,1 km/h
18:17  
2,7 l/m²
3:26 Stunden
79 %68 %
13:42
86 %
20:42
13,4 klux36,6 klux
12:57
5 Min 
23.
März
4,7 °C1,6 °C
02:08
8,3 °C
14:23
1007,3 hPa1005,4 hPa
03:08
1010,7 hPa
23:59
9,7 km/h
W
34,5 km/h
14:13  
---
10 Minuten
75 %58 %
14:33
89 %
04:48
21,5 klux66,3 klux
14:38
1:30 Std 
24.
März
3,5 °C-1,6 °C
05:29
10,2 °C
17:19
1012,6 hPa1010,7 hPa
00:04
1014,2 hPa
07:44
4,3 km/h
NW
21,6 km/h
14:54  
---
73 %56 %
17:24
87 %
09:04
27,1 klux76,7 klux
12:14
5:15 Std 
25.
März
2,1 °C-2,9 °C
06:19
10,8 °C
16:09
1011,7 hPa1008,5 hPa
16:09
1014,2 hPa
02:15
3,2 km/h
W-NW
20,9 km/h
16:14  
2,1 l/m²
2:35 Stunden
76 %57 %
16:09
84 %
07:39
23,4 klux62,0 klux
14:14
5:46 Std 
26.
März
3,6 °C-3,1 °C
06:36
11,0 °C
16:01
1013,7 hPa1012,6 hPa
16:01
1015,4 hPa
07:56
3,8 km/h
SO
26,7 km/h
16:46  
---
10 Minuten
71 %46 %
13:51
86 %
08:26
29,8 klux73,4 klux
14:06
6:40 Std 
27.
März
7,5 °C-0,9 °C
06:22
15,9 °C
16:02
1012,8 hPa1009,9 hPa
16:02
1014,8 hPa
02:27
6,8 km/h
SO
26,6 km/h
12:37  
---
63 %41 %
15:07
85 %
08:32
34,1 klux65,4 klux
12:52
8:35 Std 
28.
März
9,0 °C0,7 °C
07:18
18,6 °C
16:53
1017,3 hPa1014,6 hPa
00:02
1021,7 hPa
23:53
6,0 km/h
SO
26,7 km/h
13:48  
---
61 %38 %
15:08
82 %
07:43
36,0 klux67,2 klux
12:38
8:31 Std 
29.
März
10,0 °C0,2 °C
06:03
21,2 °C
16:38
1020,2 hPa1016,6 hPa
16:38
1023,3 hPa
06:43
5,6 km/h
SO
33,1 km/h
13:23  
---
60 %35 %
16:23
83 %
08:18
35,0 klux64,0 klux
12:58
7:50 Std 
30.
März
10,9 °C1,3 °C
07:34
21,6 °C
16:14
1016,9 hPa1013,5 hPa
17:19
1019,6 hPa
00:54
2,8 km/h
SO
14,9 km/h
12:49  
---
60 %36 %
13:39
82 %
08:59
32,0 klux62,3 klux
13:44
7:20 Std 
31.
März
11,4 °C5,1 °C
06:50
21,6 °C
18:10
1014,8 hPa1012,4 hPa
18:10
1016,4 hPa
07:40
1,6 km/h
SO
11,3 km/h
19:00  
---
61 %36 %
18:10
77 %
09:10
22,6 klux57,7 klux
14:40
1:40 Std 



März
2014

Temperatur

  

Luftdruck

  

Wind

  

Regen

  

Luftfeuchte

  

Helligkeit

Sonnen-
schein

Ø

Min

Max

Ø

Min

Max

Ø

Max

Max

Ø

Min

Max

Ø

Max

Max

7,2 °C

-3,1 °C

06:36 Uhr
26.03.2014

21,6 °C

16:14 Uhr
30.03.2014

1017,6 hPa

991,8 hPa

08:53 Uhr
03.03.2014

1034,8 hPa

07:33 Uhr
08.03.2014

7,8 km/h

SO

69,4 km/h

13:56 Uhr
21.03.2014

3,8 l/m²

3:40 Stunden
19.03.2014

69 %

30 %

15:38 Uhr
13.03.2014

89 %

09:41 Uhr
01.03.2014

24,2 klux

76,7 klux

12:14 Uhr
24.03.2014

10:00 Std

am
13.03.2014

Gesamt

Gesamt

10,0 l/m²

10 Tage
13:51 h

160:53 Std


Wetter-Diagramme März 2014     Heinzenberg / Taunus   
TemperaturLuftfeuchte
SolarstrahlungLuftdruck
HelligkeitSonnenschein
RegenmengeRegendauer
Wind-GeschwindigkeitWind-Richtung